Location: Marshall
(39.8477°N, 87.1868°W)
Time: 05:02:23
(UTC+00:00)

ACS3 Solar Sail - Visible Passes

Search period start: 20 May 2026 00:00
Search period end: 30 May 2026 00:00
Orbit: 902 x 937 km, 97.2° (Epoch: 19 May)

Date Brightness Start Highest point End Pass type
(mag) Time Alt. Az. Time Alt. Az. Time Alt. Az.
20 May 3.3 05:24:53 10° NE 05:29:01 22° E 05:29:01 22° E visible
20 May 2.0 07:06:15 10° N 07:11:58 52° WNW 07:12:29 50° W visible
21 May 3.1 05:32:54 10° NE 05:37:31 26° E 05:37:31 26° E visible
21 May 2.2 07:14:42 10° N 07:20:15 43° WNW 07:20:59 41° W visible
22 May 2.8 05:41:01 10° NNE 05:46:01 32° E 05:46:01 32° E visible
22 May 2.5 07:23:11 10° N 07:28:32 37° WNW 07:29:29 34° W visible
23 May 2.5 05:49:10 10° NNE 05:54:31 38° E 05:54:31 38° E visible
23 May 2.7 07:31:43 10° N 07:36:48 31° WNW 07:37:59 29° W visible
24 May 2.2 05:57:23 10° NNE 06:03:01 45° E 06:03:01 45° E visible
24 May 3.0 07:40:16 10° NNW 07:45:03 26° WNW 07:46:28 24° W visible
25 May 2.0 06:05:38 10° NNE 06:11:27 55° E 06:11:30 55° E visible
25 May 3.2 07:48:52 10° NNW 07:53:18 22° WNW 07:54:58 20° W visible
26 May 1.7 06:13:54 10° NNE 06:19:48 66° E 06:19:59 65° ESE visible
26 May 3.4 07:57:33 10° NNW 08:01:31 19° WNW 08:03:27 16° W visible
27 May 1.6 06:22:12 10° NNE 06:28:10 78° ESE 06:28:28 76° SE visible
27 May 3.6 08:06:19 10° NNW 08:09:44 16° WNW 08:11:56 13° W visible
28 May 3.8 04:51:19 10° ENE 04:53:29 12° E 04:53:29 12° E visible
28 May 1.5 06:30:32 10° N 06:36:30 89° WNW 06:36:57 78° SSW visible
28 May 3.7 08:15:15 10° NNW 08:17:55 13° WNW 08:20:25 10° W visible
29 May 3.7 04:58:43 10° NE 05:01:57 15° E 05:01:58 15° E visible
29 May 1.6 06:38:53 10° N 06:44:49 75° WNW 06:45:25 69° WSW visible
29 May 3.9 08:24:35 10° NW 08:26:05 11° WNW 08:27:37 10° WNW visible
